Current Version              Previous Version:    01  02  03  04  05  06  07  08  09  10  11  12  13  14  15  16  17  18  19  20  21  22  23  24  25  26  27  28  29  30  
   31  32  33  34  35  36  37  38  39  40  41  42  43  44  45  46  47  48  49  50  51  52  53  54  55  56  57  58  59  60  

[Printable]
342
ASUS44 KEWX 310410
RWRTX
SOUTH TEXAS REGIONAL WEATHER ROUNDUP
NATIONAL WEATHER SERVICE AUSTIN/SAN ANTONIO TX
1100 PM CDT THU OCT 30 2014

NOTE: "FAIR" INDICATED FEW OR NO CLOUDS BELOW 12,000 FEET WITH NO
SIGNIFICANT WEATHER AND/OR OBSTRUCTIONS TO VISIBILITY.

* - THESE STATIONS ARE NOT NWS OR FAA STATIONS...AND ARE NOT SUBJECT
    TO NWS AND FAA QUALITY CONTROL.

TXZ171-172-183>190-310500-
TEXAS HILL COUNTRY AND EDWARDS PLATEAU

CITY           SKY/WX    TMP DP  RH WIND       PRES   REMARKS
JUNCTION       PTCLDY    71  58  63 E3        30.13R
*LLANO         MOCLDY    70  61  73 CALM      30.16R
BURNET         MOCLDY    70  57  63 CALM      30.15R
*HORSESHOE BAY MOCLDY    69  59  70 CALM      30.13R
*KERRVILLE     CLEAR     67  60  80 E3        30.14R
*FREDERICKSBRG PTCLDY    66  60  81 CALM      30.14R
*ROCKSPRINGS   CLEAR     70  57  64 CALM      30.17R
*BOERNE STAGE  CLEAR     61  55  82 CALM      30.14R
*CASTROVILLE   CLEAR     72  60  66 E3        30.12R
HONDO          MOCLDY    71  61  70 SE6       30.11R
*UVALDE        CLEAR     73  61  65 E6        30.10R
DEL RIO        CLEAR     69  62  78 CALM      30.08R
LAUGHLIN AFB   CLEAR     69  61  76 E2        30.09R
CARRIZO SPRGS  CLEAR     68  59  73 SE3       30.06R
$$

TXZ173-191>194-202-209-217>225-228-310500-
CENTRAL AND SOUTH CENTRAL TEXAS

CITY           SKY/WX    TMP DP  RH WIND       PRES   REMARKS
GEORGETOWN     MOCLDY    64  57  77 CALM      30.12R
AUSTIN/BERGSTM MOCLDY    63  58  83 CALM      30.10R
AUSTIN/MABRY   MOCLDY    70  59  68 CALM      30.12R
*AUSTIN/EXEC   CLOUDY    66  57  72 CALM      30.12R
*LAGO VISTA    MOCLDY    70  58  67 E3        30.14R
SAN MARCOS     CLEAR     66  54  63 E5        30.12R
NEW BRAUNFELS  CLEAR     71  59  65 E3        30.09R
RANDOLPH AFB   CLEAR     69  61  76 NE3       30.10R
PT SAN ANTONIO CLEAR     73  63  69 SE7       30.09R
SAN ANTONIO    CLEAR     72  62  71 E3        30.10R
STINSON FIELD  CLEAR     71  63  75 SE5       30.08R
*PLEASANTON    CLEAR     70  63  77 CALM      30.10R
*LA GRANGE     CLEAR     64  58  80 CALM      30.08R
*GIDDINGS      CLEAR     60  54  81 CALM      30.14R
*GONZALES      CLEAR     69  61  75 CALM      30.09R
$$

TXZ163>164-176>182-195>201-210>213-226-227-235-310500-
SOUTHEAST TEXAS

CITY           SKY/WX    TMP DP  RH WIND       PRES   REMARKS
COLLEGE STN    PTCLDY    65  52  62 NE5       30.11R
*BRYAN         MOCLDY    60  54  80 CALM      30.12S
*CALDWELL      CLEAR     61  54  77 CALM      30.14R
*CROCKETT      PTCLDY    59  55  88 CALM      30.15R
*BRENHAM       CLEAR     64  55  72 CALM      30.11S
HUNTSVILLE     CLOUDY    59  50  72 CALM      30.11R
CONROE         CLEAR     54  52  93 CALM      30.11R
HOUSTON BUSH   CLEAR     62  55  77 CALM      30.09S
HOUSTON HOBBY  CLEAR     64  57  78 CALM      30.09R
*HOUSTON SW AP CLEAR     58  56  94 CALM      30.10R
PEARLAND       CLEAR     62  57  83 CALM      30.11R
HOUSTON HOOKS  CLEAR     58  54  86 CALM      30.10R
ELLINGTON FLD  CLEAR     66  57  72 CALM      30.10R
SUGAR LAND     CLEAR     61  57  87 CALM      30.09R
*HOUSTON EXEC  CLEAR     61 N/A N/A E3        30.11S
*CLEVELAND MUN CLEAR     55  54  98 CALM      30.11S
*WHARTON       CLEAR     62  59  90 CALM      30.10R
*COLUMBUS      FAIR      61  56  84 CALM      30.09R
$$

TXZ214>216-236>238-310500-
THE UPPER TEXAS COAST

CITY           SKY/WX    TMP DP  RH WIND       PRES   REMARKS
*ORANGE        CLEAR    N/A N/A N/A CALM      30.11S
PORT ARTHUR    CLEAR     57  53  86 CALM      30.08S
GALVESTON      CLEAR     69  58  67 NE5       30.10R
ANGLETON       CLEAR     58  58 100 N5        30.09R
*BAY CITY        N/A     64  63  97 CALM      30.09R
PALACIOS       CLEAR     69  65  86 E3        30.09S
$$

TXZ229>234-239>247-310500-
TEXAS COASTAL BEND AND RIO GRANDE PLAINS

CITY           SKY/WX    TMP DP  RH WIND       PRES   REMARKS
VICTORIA       CLEAR     71  66  84 SE3       30.09R
*BEEVILLE      CLEAR     70  69  99 SE3       30.08S
ROCKPORT       CLEAR     75  69  81 SE8       30.08R
*PORT ARANSAS  CLEAR     75  69  81 E6        30.07S
*PORT LAVACA   CLEAR     69  66  91 SE3       30.09S
*INGLESIDE     CLEAR     73  69  88 SE5       30.07S
CORPUS CHRISTI PTCLDY    73  70  90 SE6       30.08R
CORPUS NAS     PTCLDY    76  72  87 E9        30.08R
*ROBSTOWN      NOT AVBL
ALICE          CLEAR     71  68  90 CALM      30.08R
KINGSVILLE NAS PTCLDY    71  71 100 E5        30.08R
COTULLA        CLEAR     76  64  66 SE10      30.08R
*FAITH RANCH   CLEAR     73  57  56 E6        30.07S
LAREDO         CLEAR     76  65  68 SE10      30.10R
$$

TXZ248>255-310500-
DEEP SOUTH TEXAS

CITY           SKY/WX    TMP DP  RH WIND       PRES   REMARKS
BROWNSVILLE    CLEAR     72  69  90 E3        30.07S
PORT ISABEL    CLEAR     76  69  79 E7        30.06R
*SOUTH PADRE   CLEAR     77  68  73 E9        30.07R
HARLINGEN      CLEAR     71  69  93 SE3       30.06R
*HEBBRONVILLE  CLEAR     71  65  82 E3        30.10S
MCALLEN        CLEAR     73  68  84 E5        30.08R
*WESLACO       CLEAR     75  67  76 CALM      30.07R
FALFURRIAS     CLEAR     70  67  90 CALM      30.07R
EDINBURG       CLEAR     73  66  79 CALM      30.08R
*ZAPATA        CLEAR     75  64  68 SE5       30.07R
$$

TXZ213>215-236>238-242>244-246-247-251-254-255-310500-
CMAN STATIONS

STATION/POSITION TIME  TEMP    WIND        PRES    WAVE
                       AIR SEA DIR/SP/G            HT/PER
                 (UTC) (F)     (DEG/KT/KT) (MB)    (FT/S)
SABINE PASS      0400   67 73   30/  2/  3 1018.9
SEA RIM ST PARK  0400   64     300/  3/  3 1019.4
NORTH JETTY/GLS  0400   72 76   90/  6/  7   N/A
EAGLE POINT      0400   72 74  100/  4/  7 1019.0
MORGANS POINT    0400   70      90/  2/  4 1018.8
MISSION/ARANSAS  0300          120/  7     1019.0
PORT O`CONNOR    0400          100/  8/ 10   N/A
PORT ARANSAS     0400   76 79  110/  9/ 11 1019.1
MALAQUITE BEACH  0400   77 80   90/ 12/ 12 1017.9
BAFFIN BAY       0400   78 85  100/  9/ 10 1018.3
PORT ISABEL      0400   78 79   80/  7/  8 1018.0
$$

GMZ080-GMZ150>470-310500-
OFFSHORE BUOY REPORTS

STATION/POSITION TIME  TEMP    WIND        PRES    WAVE
                       AIR SEA DIR/SP/G            HT/PER
                 (UTC) (F)     (DEG/KT/KT) (MB)    (FT/S)
20 E GALVESTON   0400   73 77   50/  6/ 10 1018.4    1/ 5
90 E PT ARANSAS  0400   74 79   60/  8/ 10 1018.8    2/ 5
35 NE PT MANSFLD 0400   78 80   90/ 12/ 14 1018.0    2/ 5
200 E PT ISABEL  0400   77 80   20/ 12/ 16 1017.3    3/ 5
$$